Location: Namasale
(1.5000°N, 32.6167°E)
Time: 19:31:36
(UTC+00:00)

SR - Pass Details

Date: 18 April 2021
Orbit: 573 x 882 km, 66.7° (Epoch: 13 May)

Event Time Altitude Azimuth Distance (km) Brightness Sun altitude
Rises 02:59:19 0° 160° (SSE) 3,018 ? -11.9°
Reaches altitude 10° 03:03:23 10° 125° (SE) 2,186 ? -10.9°
Maximum altitude 03:04:52 11° 108° (ESE) 2,131 ? -10.5°
Drops below altitude 10° 03:06:24 10° 90° (E) 2,246 ? -10.1°
Sets 03:10:45 0° 57° (ENE) 3,257 ? -9.1°
